| time (UTC) | temp F | wind direction | speed MPH | gust MPH | rain 1hr in | rain 24hr in | rain mn in | humidity % | barometer mb |
| 20260505235004 | 77 | 59 | 2.0 | 10.0 | 0.00 | 0.00 | 0.00 | 32 | 1010.5 |
| 20260505234004 | 77 | 88 | 5.0 | 11.0 | 0.00 | 0.00 | 0.00 | 31 | 1010.7 |
| 20260505232004 | 79 | 69 | 7.0 | 10.0 | 0.00 | 0.00 | 0.00 | 28 | 1010.7 |
| 20260505231004 | 79 | 111 | 2.0 | 7.0 | 0.00 | 0.00 | 0.00 | 28 | 1010.6 |
| 20260505230004 | 79 | 153 | 2.0 | 9.0 | 0.00 | 0.00 | 0.00 | 26 | 1010.6 |
| 20260505225004 | 80 | 82 | 5.0 | 18.0 | 0.00 | 0.00 | 0.00 | 26 | 1010.6 |
| 20260505224004 | 80 | 69 | 1.0 | 11.0 | 0.00 | 0.00 | 0.00 | 26 | 1010.4 |
| 20260505223004 | 80 | 75 | 3.0 | 9.0 | 0.00 | 0.00 | 0.00 | 27 | 1010.6 |
| 20260505221004 | 81 | 123 | 1.0 | 10.0 | 0.00 | 0.00 | 0.00 | 25 | 1010.7 |
| 20260505215006 | 81 | 74 | 4.0 | 9.0 | 0.00 | 0.00 | 0.00 | 27 | 1010.5 |
| 20260505214004 | 81 | 37 | 3.0 | 12.0 | 0.00 | 0.00 | 0.00 | 25 | 1010.4 |
| 20260505213004 | 82 | 229 | 3.0 | 10.0 | 0.00 | 0.00 | 0.00 | 25 | 1010.4 |
| 20260505212004 | 82 | 157 | 1.0 | 9.0 | 0.00 | 0.00 | 0.00 | 26 | 1010.5 |
| 20260505211005 | 82 | 44 | 2.0 | 10.0 | 0.00 | 0.00 | 0.00 | 26 | 1010.3 |
| 20260505210005 | 82 | 323 | 12.0 | 15.0 | 0.00 | 0.00 | 0.00 | 26 | 1010.4 |
| 20260505205004 | 82 | 88 | 3.0 | 12.0 | 0.00 | 0.00 | 0.00 | 25 | 1010.3 |
| 20260505204005 | 82 | 251 | 5.0 | 12.0 | 0.00 | 0.00 | 0.00 | 24 | 1010.5 |
| 20260505202005 | 83 | 66 | 5.0 | 10.0 | 0.00 | 0.00 | 0.00 | 23 | 1010.4 |
| 20260505195005 | 83 | 61 | 4.0 | 14.0 | 0.00 | 0.00 | 0.00 | 24 | 1010.7 |
| 20260505194005 | 83 | 151 | 1.0 | 14.0 | 0.00 | 0.00 | 0.00 | 23 | 1010.7 |
| 20260505193004 | 84 | 92 | 5.0 | 11.0 | 0.00 | 0.00 | 0.00 | 22 | 1010.8 |
| 20260505192004 | 84 | 114 | 5.0 | 11.0 | 0.00 | 0.00 | 0.00 | 22 | 1010.9 |
| 20260505191005 | 84 | 157 | 1.0 | 12.0 | 0.00 | 0.00 | 0.00 | 22 | 1011.0 |
| 20260505190005 | 83 | 55 | 2.0 | 9.0 | 0.00 | 0.00 | 0.00 | 23 | 1011.1 |
| 20260505185004 | 83 | 50 | 6.0 | 11.0 | 0.00 | 0.00 | 0.00 | 23 | 1011.3 |
| 20260505183004 | 83 | 265 | 5.0 | 11.0 | 0.00 | 0.00 | 0.00 | 26 | 1011.6 |
| 20260505182004 | 83 | 128 | 2.0 | 11.0 | 0.00 | 0.00 | 0.00 | 27 | 1011.8 |
| 20260505181005 | 82 | 69 | 0.0 | 7.0 | 0.00 | 0.00 | 0.00 | 27 | 1011.9 |
| 20260505175004 | 82 | 109 | 1.0 | 6.0 | 0.00 | 0.00 | 0.00 | 30 | 1012.2 |
| 20260505174004 | 81 | 19 | 3.0 | 9.0 | 0.00 | 0.00 | 0.00 | 28 | 1012.3 |
| 20260505173004 | 80 | 38 | 4.0 | 9.0 | 0.00 | 0.00 | 0.00 | 29 | 1012.2 |
| 20260505172004 | 80 | 178 | 5.0 | 11.0 | 0.00 | 0.00 | 0.00 | 30 | 1012.4 |
| 20260505171005 | 80 | 190 | 0.0 | 9.0 | 0.00 | 0.00 | 0.00 | 31 | 1012.6 |
| 20260505170005 | 80 | 93 | 4.0 | 7.0 | 0.00 | 0.00 | 0.00 | 32 | 1012.5 |
| 20260505165004 | 79 | 43 | 7.0 | 8.0 | 0.00 | 0.00 | 0.00 | 34 | 1012.7 |
| 20260505164004 | 79 | 45 | 2.0 | 9.0 | 0.00 | 0.00 | 0.00 | 32 | 1012.8 |
| 20260505163004 | 79 | 242 | 2.0 | 12.0 | 0.00 | 0.00 | 0.00 | 32 | 1012.8 |
| 20260505162005 | 78 | 87 | 0.0 | 7.0 | 0.00 | 0.00 | 0.00 | 31 | 1012.8 |
| 20260505161004 | 78 | 110 | 4.0 | 11.0 | 0.00 | 0.00 | 0.00 | 33 | 1012.8 |
| 20260505153004 | 75 | 44 | 5.0 | 9.0 | 0.00 | 0.00 | 0.00 | 34 | 1013.1 |
| 20260505151005 | 74 | 100 | 5.0 | 7.0 | 0.00 | 0.00 | 0.00 | 38 | 1013.2 |
| 20260505125004 | 64 | 287 | 5.0 | 5.0 | 0.00 | 0.00 | 0.00 | 52 | 1013.7 |
| 20260505124005 | 64 | 322 | 0.0 | 6.0 | 0.00 | 0.00 | 0.00 | 51 | 1013.6 |
| 20260505123005 | 63 | 89 | 2.0 | 6.0 | 0.00 | 0.00 | 0.00 | 52 | 1013.4 |
| 20260505122004 | 62 | 72 | 1.0 | 9.0 | 0.00 | 0.00 | 0.00 | 54 | 1013.4 |
| 20260505121004 | 62 | 71 | 0.0 | 7.0 | 0.00 | 0.00 | 0.00 | 56 | 1013.4 |
| 20260505120006 | 61 | 84 | 2.0 | 4.0 | 0.00 | 0.00 | 0.00 | 57 | 1013.4 |
| 20260505115004 | 59 | 313 | 3.0 | 8.0 | 0.00 | 0.00 | 0.00 | 59 | 1013.2 |
| 20260505114004 | 58 | 132 | 1.0 | 5.0 | 0.00 | 0.00 | 0.00 | 62 | 1013.2 |
| 20260505113005 | 57 | 129 | 1.0 | 6.0 | 0.00 | 0.00 | 0.00 | 65 | 1013.0 |
| 20260505112004 | 56 | 81 | 0.0 | 4.0 | 0.00 | 0.00 | 0.00 | 66 | 1013.1 |
| 20260505111004 | 56 | 5 | 0.0 | 4.0 | 0.00 | 0.00 | 0.00 | 66 | 1013.1 |
| 20260505101004 | 56 | 90 | 0.0 | 4.0 | 0.00 | 0.00 | 0.00 | 64 | 1012.4 |
| 20260505100005 | 56 | 117 | 0.0 | 0.0 | 0.00 | 0.00 | 0.00 | 64 | 1012.5 |
| 20260505095005 | 56 | 127 | 0.0 | 0.0 | 0.00 | 0.00 | 0.00 | 64 | 1012.4 |
| 20260505094004 | 56 | 127 | 0.0 | 0.0 | 0.00 | 0.00 | 0.00 | 64 | 1012.4 |
| 20260505093004 | 56 | 128 | 0.0 | 0.0 | 0.00 | 0.00 | 0.00 | 63 | 1012.3 |
| 20260505092004 | 56 | 128 | 0.0 | 0.0 | 0.00 | 0.00 | 0.00 | 63 | 1012.2 |
| 20260505091005 | 56 | 128 | 0.0 | 0.0 | 0.00 | 0.00 | 0.00 | 63 | 1012.3 |
| 20260505090004 | 57 | 128 | 0.0 | 0.0 | 0.00 | 0.00 | 0.00 | 63 | 1012.2 |
| 20260505085004 | 57 | 128 | 0.0 | 0.0 | 0.00 | 0.00 | 0.00 | 62 | 1012.3 |
| 20260505083004 | 57 | 128 | 0.0 | 0.0 | 0.00 | 0.00 | 0.00 | 62 | 1012.3 |
| 20260505082004 | 57 | 128 | 0.0 | 0.0 | 0.00 | 0.00 | 0.00 | 62 | 1012.3 |
| 20260505081004 | 57 | 128 | 0.0 | 0.0 | 0.00 | 0.00 | 0.00 | 62 | 1012.4 |
| 20260505080005 | 57 | 128 | 0.0 | 0.0 | 0.00 | 0.00 | 0.00 | 62 | 1012.4 |
| 20260505075004 | 57 | 128 | 0.0 | 0.0 | 0.00 | 0.00 | 0.00 | 62 | 1012.3 |
| 20260505074004 | 57 | 128 | 0.0 | 0.0 | 0.00 | 0.00 | 0.00 | 63 | 1012.3 |
| 20260505073005 | 57 | 128 | 0.0 | 0.0 | 0.00 | 0.00 | 0.00 | 62 | 1012.4 |
| 20260505072004 | 57 | 128 | 0.0 | 0.0 | 0.00 | 0.00 | 0.00 | 63 | 1012.3 |
| 20260505071004 | 57 | 128 | 0.0 | 0.0 | 0.00 | 0.00 | 0.00 | 62 | 1012.4 |
| 20260505070005 | 57 | 128 | 0.0 | 0.0 | 0.00 | 0.00 | 0.00 | 61 | 1012.4 |
| 20260505065004 | 57 | 128 | 0.0 | 0.0 | 0.00 | 0.00 | 0.00 | 61 | 1012.3 |
| 20260505064004 | 57 | 128 | 0.0 | 0.0 | 0.00 | 0.00 | 0.00 | 61 | 1012.2 |
| 20260505063004 | 57 | 128 | 0.0 | 0.0 | 0.00 | 0.00 | 0.00 | 60 | 1012.2 |
| 20260505062004 | 56 | 128 | 0.0 | 0.0 | 0.00 | 0.00 | 0.00 | 60 | 1012.0 |
| 20260505061005 | 56 | 128 | 0.0 | 0.0 | 0.00 | 0.00 | 0.00 | 60 | 1012.1 |
| 20260505060004 | 56 | 128 | 0.0 | 0.0 | 0.00 | 0.00 | 0.00 | 59 | 1012.2 |
| 20260505055005 | 57 | 128 | 0.0 | 0.0 | 0.00 | 0.00 | 0.00 | 58 | 1012.1 |
| 20260505054004 | 57 | 128 | 0.0 | 0.0 | 0.00 | 0.00 | 0.00 | 57 | 1012.3 |
| 20260505053004 | 57 | 128 | 0.0 | 0.0 | 0.00 | 0.00 | 0.00 | 57 | 1012.4 |
| 20260505051004 | 57 | 128 | 0.0 | 0.0 | 0.00 | 0.00 | 0.00 | 56 | 1012.3 |
| 20260505041004 | 58 | 128 | 0.0 | 0.0 | 0.00 | 0.00 | 0.00 | 51 | 1012.2 |
| 20260505040005 | 58 | 128 | 0.0 | 0.0 | 0.00 | 0.00 | 0.00 | 51 | 1012.2 |
| 20260505034004 | 59 | 128 | 0.0 | 0.0 | 0.00 | 0.00 | 0.00 | 50 | 1012.3 |
| 20260505033004 | 59 | 128 | 0.0 | 0.0 | 0.00 | 0.00 | 0.00 | 49 | 1012.3 |
| 20260505031004 | 60 | 128 | 0.0 | 0.0 | 0.00 | 0.00 | 0.00 | 48 | 1012.3 |
| 20260505030004 | 60 | 128 | 0.0 | 0.0 | 0.00 | 0.00 | 0.00 | 47 | 1012.3 |
| 20260505025005 | 60 | 128 | 0.0 | 0.0 | 0.00 | 0.00 | 0.00 | 47 | 1012.4 |
| 20260505024005 | 60 | 128 | 0.0 | 0.0 | 0.00 | 0.00 | 0.00 | 46 | 1012.4 |
| 20260505023004 | 61 | 128 | 0.0 | 0.0 | 0.00 | 0.00 | 0.00 | 46 | 1012.4 |
| 20260505022004 | 61 | 128 | 0.0 | 0.0 | 0.00 | 0.00 | 0.00 | 46 | 1012.4 |
| 20260505020004 | 62 | 128 | 0.0 | 0.0 | 0.00 | 0.00 | 0.00 | 45 | 1012.3 |
| 20260505015004 | 62 | 128 | 0.0 | 0.0 | 0.00 | 0.00 | 0.00 | 44 | 1012.3 |
| 20260505013005 | 63 | 128 | 0.0 | 0.0 | 0.00 | 0.00 | 0.00 | 43 | 1012.1 |
| 20260505011004 | 64 | 136 | 0.0 | 2.0 | 0.00 | 0.00 | 0.00 | 42 | 1012.0 |
| 20260505010004 | 64 | 136 | 0.0 | 2.0 | 0.00 | 0.00 | 0.00 | 41 | 1011.9 |
| 20260505005004 | 65 | 138 | 0.0 | 2.0 | 0.00 | 0.00 | 0.00 | 40 | 1011.6 |
| 20260505004005 | 65 | 138 | 0.0 | 6.0 | 0.00 | 0.00 | 0.00 | 40 | 1011.7 |
| 20260505003004 | 66 | 112 | 0.0 | 4.0 | 0.00 | 0.00 | 0.00 | 39 | 1011.6 |
| 20260505002004 | 67 | 92 | 0.0 | 4.0 | 0.00 | 0.00 | 0.00 | 39 | 1011.6 |
| 20260505001004 | 67 | 126 | 1.0 | 5.0 | 0.00 | 0.00 | 0.00 | 38 | 1011.6 |
| 20260505000005 | 68 | 126 | 0.0 | 1.0 | 0.00 | 0.00 | 0.00 | 36 | 1011.6 |